Regional Weather Roundup
Issued by NWS

Home | Current Version | Previous Version | Graphics & Text | Print | Product List | Glossary On
Versions: 1 2 3 4 5 6 7 8 9 10 11 12 13 14 15 16 17 18 19 20 21 22 23 24 25 26 27 28 29 30 31 32 33 34 35 36 37 38 39 40 41 42 43 44 45 46 47 48 49 50
000
ASUS45 KCYS 191410
RWRWY

WYOMING REGIONAL WEATHER ROUNDUP
NATIONAL WEATHER SERVICE CHEYENNE WY
800 AM MDT TUE SEP 19 2017

NOTE:  "FAIR" INDICATES FEW OR NO CLOUDS BELOW 12,000 FEET
WITH NO SIGNIFICANT WEATHER AND/OR OBSTRUCTIONS TO VISIBILITY.

WYZ001-191500-
YELLOWSTONE NATIONAL PARK

CITY           SKY/WX    TMP DP  RH WIND       PRES   REMARKS
LK YELLOWSTONE   N/A     32  31  96 W9G20     29.75S WCI  24
W YELLOWSTONE  NOT AVBL

$$
WYZ002>013-054>058-071-098>099-191500-
NORTHERN WYOMING

CITY           SKY/WX    TMP DP  RH WIND       PRES   REMARKS
JACKSON        CLOUDY    37  33  85 S17       29.78F WCI  27
CODY           FAIR      42  40  92 N7        29.67R
GREYBULL       FAIR      52  50  93 NW12      29.60
WORLAND        CLOUDY    53  48  83 SW14      29.61R
SHERIDAN       CLOUDY    52  42  69 NW17      29.64R
BUFFALO        CLOUDY    50  42  74 NW15G25   29.64R
GILLETTE       CLOUDY    52  46  80 S6        29.62R
HULETT         PTSUNNY   54  43  66 CALM      29.62R
NEWCASTLE      FAIR      59  37  44 SE9G18    29.62R

$$
WYZ014>020-022>026-101>103-191500-
CENTRAL WYOMING

CITY           SKY/WX    TMP DP  RH WIND       PRES   REMARKS
BIG PINEY      CLOUDY    38  36  92 N14       29.84R WCI  30
PINEDALE       CLOUDY    36  36 100 NW15      29.83S WCI  26
DUBOIS         RAIN      34  32  93 NW13      29.77R WCI  25
LANDER           N/A    N/A N/A N/A MISG      29.68R
RIVERTON       FAIR      47  42  83 NW16      29.69R
CASPER         FAIR      53  44  71 W9        29.70S
DOUGLAS        FAIR      54  40  59 W16       29.69R

$$
WYZ021-027>030-104>119-191500-
SOUTHERN WYOMING

CITY           SKY/WX    TMP DP  RH WIND       PRES   REMARKS
EVANSTON       CLOUDY    42  41  96 W13       29.87R FOG
KEMMERER       LGT SNOW  36  34  93 NW20G26   29.85R WCI  25
FORT BRIDGER   RAIN      43  43 100 NW22G28   29.87R
ROCK SPRINGS   CLOUDY    46  38  73 S6        29.80F
DIXON          CLOUDY    62  21  21 S21G30    29.83S
RAWLINS        FAIR      50  39  66 W15       29.78F
SARATOGA       FAIR      59  21  23 SW20G26   29.80S
LARAMIE        FAIR      56  19  23 S8        29.81F
CHEYENNE       FAIR      53  32  44 SW6       29.76F
TORRINGTON     FAIR      52  49  89 VRB3      29.63F
PINE BLUFFS    FAIR      48  39  71 CALM      29.73S

$$



USA.gov is the U.S. government's official web portal to all federal, state and local government web resources and services.